164  
ASUS42 KMLB 230811  
RWRMLB  
HOURLY WEATHER ROUNDUP AROUND FLORIDA  
NATIONAL WEATHER SERVICE OFFICE MELBOURNE FL  
400 AM EDT THU MAR 23 2017  
 
CITY SKY/WX TMP DP RH WIND PRES REMARKS
 
MELBOURNE MOCLDY 73 65 75 NE9 30.12F  
FORT PIERCE CLOUDY 71 67 87 E5 30.11F  
ORLANDO INTL MOCLDY 69 63 81 N5 30.14F  
DAYTONA BEACH PTCLDY 68 66 93 E7 30.15F  
VERO BEACH PTCLDY 71 66 84 NE7 30.12F  

   
..ELSEWHERE ACROSS CENTRAL FLORIDA
 
 
 
CITY SKY/WX TMP DP RH WIND PRES REMARKS
 
PATRICK AFB CLEAR 71 67 87 E7 30.12F  
KSC PTCLDY 68 64 86 CALM 30.11F  
CAPE CANAVERAL MOCLDY 70 62 75 E5 30.11F  
ORLANDO EXEC CLOUDY 70 64 81 N5 30.14F  
LEESBURG MOCLDY 67 62 84 NE7 30.17R  
THE VILLAGES N/A 68 64 88 MISG 30.07S  
SANFORD MOCLDY 68 64 87 N6 30.15F  
DELAND PTCLDY 64 63 94 NW6 30.15F  
WINTER HAVEN PTCLDY 65 62 90 N3 30.15F  
KISSIMMEE CLOUDY 70 65 84 NE6 30.15F  
OKEECHOBEE CLEAR N/A N/A N/A NE6 30.12S  
TAMPA PTCLDY 67 63 87 N3 30.15F  

   
..NORTHERN FLORIDA
 
 
 
CITY SKY/WX TMP DP RH WIND PRES REMARKS
 
ST AUGUSTINE MOCLDY 67 62 84 N12 30.19F  
OCALA MOCLDY 66 59 77 NE3 30.18S  
GAINESVILLE PTCLDY 61 57 87 NE5 30.19S  
JACKSONVILLE MOCLDY 62 57 83 NE10 30.21S  
TALLAHASSEE PTCLDY 66 51 58 E9 30.19S  

   
..ALONG THE SOUTHEAST COAST TO THE KEYS
 
 
 
CITY SKY/WX TMP DP RH WIND PRES REMARKS
 
STUART CLEAR 68 63 83 CALM 30.12S  
WEST PALM BCH PTCLDY 64 57 78 CALM 30.10F  
MIAMI CLEAR 67 60 78 CALM 30.11F  
KEY WEST CLEAR 69 63 81 N9 30.12F  

   
..MARINE REPORTS
 
 
 
STATION/POSITION TIME TEMP WIND PRES WAVE SWELL
 
AIR SEA DIR/SP/G HT/PER HT/PER  
(UTC) (F) (DEG/KT/KT) (MB) (FT/S) (FT/S)  
ST AUGUSTINE FP 0800 66 66 10/ 12/ 13 1022.6F  
17NM ENE CAPE CA 0730 75 N/A 4/11 2/11  
TRIDENT PIER 0748 70 70 50/ 3/ 5 1021.3F  
SEBASTIAN INLET 0800 71 50/ 8 1021.0  
4NM E PORT CANAV 0751 70 N/A 3/12  
6NM NE FPR INLET 0730 71 N/A 2/11 2/11  
SETTLEMENT PT GB 0800 72 140/ 2/ 2 1019.6F  

 
 
 
CLICK HERE TO GO TO PREVIOUS BULLETINS.

The Nexlab FL Page Main Text Page